Time,TemperatureF,DewpointF,PressureIn,WindDirection,WindDirectionDegrees,WindSpeedMPH,WindSpeedGustMPH,Humidity,HourlyPrecipIn,Conditions,Clouds,dailyrainin,SoftwareType,DateUTC
2013-04-17 08:52:00,61.0,59.0,30.32,WSW,244,0.0,0.0,94,0.00,,,0.00,,2013-04-17 12:52:00,
2013-04-17 09:02:00,62.0,60.0,30.32,WSW,244,0.0,0.0,93,0.00,,,0.00,,2013-04-17 13:02:00,
2013-04-17 09:12:00,62.0,60.0,30.32,WSW,244,0.0,0.0,93,0.00,,,0.00,,2013-04-17 13:12:00,
2013-04-17 09:22:00,63.0,60.0,30.31,WSW,244,0.0,0.0,91,0.00,,,0.00,,2013-04-17 13:22:00,
2013-04-17 09:32:00,65.0,62.0,30.31,WSW,244,0.0,2.0,89,0.00,,,0.00,,2013-04-17 13:32:00,
2013-04-17 09:42:00,65.0,62.0,30.31,WSW,244,0.0,2.0,89,0.00,,,0.00,,2013-04-17 13:42:00,
2013-04-17 09:52:00,66.0,62.0,30.32,ENE,61,0.0,3.0,86,0.00,,,0.00,,2013-04-17 13:52:00,
2013-04-17 10:02:00,66.0,61.0,30.31,ENE,60,0.0,2.0,84,0.00,,,0.00,,2013-04-17 14:02:00,
2013-04-17 10:12:00,66.0,61.0,30.31,ENE,60,0.0,2.0,84,0.00,,,0.00,,2013-04-17 14:12:00,
2013-04-17 10:22:00,69.0,62.0,30.32,ENE,61,0.0,6.0,78,0.00,,,0.00,,2013-04-17 14:22:00,
2013-04-17 10:32:00,70.0,62.0,30.32,WSW,244,0.0,5.0,77,0.00,,,0.00,,2013-04-17 14:32:00,
2013-04-17 10:42:00,72.0,63.0,30.31,ENE,76,1.0,2.0,74,0.00,,,0.00,,2013-04-17 14:42:00,
2013-04-17 10:52:00,72.0,63.0,30.31,ENE,76,1.0,2.0,74,0.00,,,0.00,,2013-04-17 14:52:00,
2013-04-17 11:02:00,73.0,63.0,30.31,East,86,0.0,6.0,71,0.00,,,0.00,,2013-04-17 15:02:00,
2013-04-17 11:12:00,75.0,64.0,30.30,NNE,16,0.0,1.0,68,0.00,,,0.00,,2013-04-17 15:12:00,
2013-04-17 11:22:00,75.0,64.0,30.30,NNE,16,0.0,1.0,68,0.00,,,0.00,,2013-04-17 15:22:00,
2013-04-17 11:33:00,75.0,64.0,30.30,NNE,16,0.0,1.0,68,0.00,,,0.00,,2013-04-17 15:33:00,
2013-04-17 11:43:00,75.0,64.0,30.30,NNE,16,0.0,1.0,68,0.00,,,0.00,,2013-04-17 15:43:00,
2013-04-17 11:53:00,76.0,63.0,30.30,SSW,213,0.0,3.0,65,0.00,,,0.00,,2013-04-17 15:53:00,
2013-04-17 12:03:00,77.0,64.0,30.30,NW,326,0.0,2.0,64,0.00,,,0.00,,2013-04-17 16:03:00,
2013-04-17 12:13:00,77.0,64.0,30.30,NW,326,0.0,2.0,64,0.00,,,0.00,,2013-04-17 16:13:00,
2013-04-17 12:23:00,77.0,63.0,30.31,WSW,240,0.0,5.0,63,0.00,,,0.00,,2013-04-17 16:23:00,
2013-04-17 12:32:00,77.0,63.0,30.31,East,82,1.0,3.0,63,0.00,,,0.00,,2013-04-17 16:32:00,
2013-04-17 12:42:00,77.0,63.0,30.31,East,82,1.0,3.0,63,0.00,,,0.00,,2013-04-17 16:42:00,
2013-04-17 12:52:00,78.0,64.0,30.30,South,182,1.0,4.0,62,0.00,,,0.00,,2013-04-17 16:52:00,
2013-04-17 13:02:00,79.0,63.0,30.30,ENE,61,2.0,5.0,59,0.00,,,0.00,,2013-04-17 17:02:00,
2013-04-17 13:12:00,79.0,63.0,30.30,ENE,61,2.0,5.0,59,0.00,,,0.00,,2013-04-17 17:12:00,
2013-04-17 13:22:00,80.0,63.0,30.30,ENE,69,1.0,5.0,56,0.00,,,0.00,,2013-04-17 17:22:00,
2013-04-17 13:33:00,80.0,63.0,30.30,ENE,69,1.0,5.0,56,0.00,,,0.00,,2013-04-17 17:33:00,
2013-04-17 13:42:00,80.0,63.0,30.30,ENE,69,1.0,5.0,56,0.00,,,0.00,,2013-04-17 17:42:00,
2013-04-17 13:52:00,82.0,62.0,30.28,WSW,253,0.0,4.0,51,0.00,,,0.00,,2013-04-17 17:52:00,
2013-04-17 14:02:00,83.0,62.0,30.27,East,83,1.0,4.0,50,0.00,,,0.00,,2013-04-17 18:02:00,
2013-04-17 14:12:00,83.0,62.0,30.27,East,83,1.0,4.0,50,0.00,,,0.00,,2013-04-17 18:12:00,
2013-04-17 14:22:00,81.0,61.0,30.27,SSW,209,1.0,5.0,51,0.00,,,0.00,,2013-04-17 18:22:00,
2013-04-17 14:32:00,81.0,61.0,30.27,ESE,103,0.0,4.0,50,0.00,,,0.00,,2013-04-17 18:32:00,
2013-04-17 14:42:00,81.0,61.0,30.27,ESE,103,0.0,4.0,50,0.00,,,0.00,,2013-04-17 18:42:00,
2013-04-17 14:52:00,80.0,59.0,30.27,SW,233,0.0,4.0,49,0.00,,,0.00,,2013-04-17 18:52:00,
2013-04-17 15:02:00,80.0,59.0,30.27,SW,233,0.0,4.0,49,0.00,,,0.00,,2013-04-17 19:02:00,
2013-04-17 15:12:00,80.0,59.0,30.27,SW,233,0.0,4.0,49,0.00,,,0.00,,2013-04-17 19:12:00,
2013-04-17 15:22:00,80.0,59.0,30.26,West,259,1.0,3.0,49,0.00,,,0.00,,2013-04-17 19:22:00,
2013-04-17 15:32:00,79.0,58.0,30.26,SW,229,0.0,4.0,49,0.00,,,0.00,,2013-04-17 19:32:00,
2013-04-17 15:42:00,81.0,60.0,30.26,SW,218,1.0,5.0,49,0.00,,,0.00,,2013-04-17 19:42:00,
2013-04-17 15:52:00,81.0,60.0,30.26,SW,218,1.0,5.0,49,0.00,,,0.00,,2013-04-17 19:52:00,
2013-04-17 16:02:00,81.0,60.0,30.26,SW,218,1.0,5.0,49,0.00,,,0.00,,2013-04-17 20:02:00,
2013-04-17 16:12:00,81.0,60.0,30.26,SW,218,1.0,5.0,49,0.00,,,0.00,,2013-04-17 20:12:00,
2013-04-17 16:22:00,81.0,60.0,30.26,SW,218,1.0,5.0,49,0.00,,,0.00,,2013-04-17 20:22:00,
2013-04-17 16:33:00,79.0,60.0,30.24,ENE,63,1.0,3.0,52,0.00,,,0.00,,2013-04-17 20:33:00,
2013-04-17 16:42:00,79.0,60.0,30.24,ENE,63,1.0,3.0,52,0.00,,,0.00,,2013-04-17 20:42:00,
2013-04-17 16:52:00,79.0,59.0,30.23,SSW,210,0.0,6.0,51,0.00,,,0.00,,2013-04-17 20:52:00,
2013-04-17 17:03:00,79.0,58.0,30.22,South,179,0.0,2.0,49,0.00,,,0.00,,2013-04-17 21:03:00,
2013-04-17 17:12:00,79.0,58.0,30.22,South,179,0.0,2.0,49,0.00,,,0.00,,2013-04-17 21:12:00,
2013-04-17 17:22:00,79.0,60.0,30.21,NE,44,0.0,3.0,52,0.00,,,0.00,,2013-04-17 21:22:00,
2013-04-17 17:33:00,79.0,59.0,30.21,ESE,117,0.0,1.0,51,0.00,,,0.00,,2013-04-17 21:33:00,
2013-04-17 17:42:00,79.0,59.0,30.21,ESE,117,0.0,1.0,51,0.00,,,0.00,,2013-04-17 21:42:00,
2013-04-17 17:53:00,79.0,59.0,30.21,ENE,77,0.0,2.0,50,0.00,,,0.00,,2013-04-17 21:53:00,
2013-04-17 18:02:00,79.0,59.0,30.21,ENE,77,0.0,2.0,51,0.00,,,0.00,,2013-04-17 22:02:00,
2013-04-17 18:12:00,79.0,59.0,30.21,ENE,77,0.0,2.0,51,0.00,,,0.00,,2013-04-17 22:12:00,
2013-04-17 18:22:00,78.0,59.0,30.21,ENE,77,0.0,1.0,52,0.00,,,0.00,,2013-04-17 22:22:00,
2013-04-17 18:33:00,78.0,59.0,30.21,ENE,76,0.0,1.0,53,0.00,,,0.00,,2013-04-17 22:33:00,
2013-04-17 18:42:00,78.0,60.0,30.22,North,355,0.0,2.0,54,0.00,,,0.00,,2013-04-17 22:42:00,
2013-04-17 18:53:00,78.0,60.0,30.22,North,355,0.0,2.0,54,0.00,,,0.00,,2013-04-17 22:53:00,
2013-04-17 19:02:00,77.0,60.0,30.22,SW,232,0.0,2.0,55,0.00,,,0.00,,2013-04-17 23:02:00,
2013-04-17 19:12:00,76.0,61.0,30.22,SW,232,0.0,0.0,60,0.00,,,0.00,,2013-04-17 23:12:00,
2013-04-17 19:22:00,76.0,61.0,30.22,SW,232,0.0,0.0,60,0.00,,,0.00,,2013-04-17 23:22:00,
2013-04-17 19:32:00,76.0,62.0,30.22,SW,232,0.0,0.0,62,0.00,,,0.00,,2013-04-17 23:32:00,
2013-04-17 19:42:00,74.0,62.0,30.22,SW,232,0.0,0.0,66,0.00,,,0.00,,2013-04-17 23:42:00,
2013-04-17 19:52:00,74.0,62.0,30.22,SW,232,0.0,0.0,66,0.00,,,0.00,,2013-04-17 23:52:00,
2013-04-17 20:02:00,73.0,61.0,30.22,SW,232,0.0,0.0,67,0.00,,,0.00,,2013-04-18 00:02:00,
2013-04-17 20:12:00,72.0,61.0,30.22,SW,232,0.0,0.0,69,0.00,,,0.00,,2013-04-18 00:12:00,
2013-04-17 20:22:00,72.0,61.0,30.22,SW,232,0.0,0.0,69,0.00,,,0.00,,2013-04-18 00:22:00,
2013-04-17 20:32:00,71.0,61.0,30.22,SW,232,0.0,0.0,71,0.00,,,0.00,,2013-04-18 00:32:00,
2013-04-17 20:42:00,71.0,62.0,30.22,SW,232,0.0,0.0,72,0.00,,,0.00,,2013-04-18 00:42:00,
2013-04-17 20:52:00,71.0,62.0,30.22,SW,232,0.0,0.0,72,0.00,,,0.00,,2013-04-18 00:52:00,
2013-04-17 21:02:00,70.0,61.0,30.22,SW,232,0.0,0.0,73,0.00,,,0.00,,2013-04-18 01:02:00,
2013-04-17 21:12:00,70.0,62.0,30.23,SW,232,0.0,0.0,75,0.00,,,0.00,,2013-04-18 01:12:00,
2013-04-17 21:22:00,70.0,62.0,30.23,SW,232,0.0,0.0,75,0.00,,,0.00,,2013-04-18 01:22:00,
2013-04-17 21:32:00,69.0,61.0,30.23,SW,232,0.0,0.0,76,0.00,,,0.00,,2013-04-18 01:32:00,
2013-04-17 21:42:00,68.0,61.0,30.24,SW,232,0.0,0.0,78,0.00,,,0.00,,2013-04-18 01:42:00,
2013-04-17 21:52:00,68.0,61.0,30.24,SW,232,0.0,0.0,78,0.00,,,0.00,,2013-04-18 01:52:00,
2013-04-17 22:02:00,68.0,61.0,30.24,SW,232,0.0,0.0,79,0.00,,,0.00,,2013-04-18 02:02:00,
2013-04-17 22:12:00,68.0,62.0,30.24,SW,232,0.0,0.0,80,0.00,,,0.00,,2013-04-18 02:12:00,
2013-04-17 22:22:00,68.0,62.0,30.24,SW,232,0.0,0.0,80,0.00,,,0.00,,2013-04-18 02:22:00,
2013-04-17 22:32:00,67.0,61.0,30.24,SW,232,0.0,0.0,82,0.00,,,0.00,,2013-04-18 02:32:00,
2013-04-17 22:42:00,67.0,61.0,30.24,SW,232,0.0,0.0,82,0.00,,,0.00,,2013-04-18 02:42:00,
2013-04-17 22:52:00,67.0,61.0,30.24,SW,232,0.0,0.0,82,0.00,,,0.00,,2013-04-18 02:52:00,
2013-04-17 23:02:00,67.0,63.0,30.24,SW,232,0.0,0.0,86,0.00,,,0.00,,2013-04-18 03:02:00,
2013-04-17 23:12:00,66.0,62.0,30.24,SW,232,0.0,0.0,87,0.00,,,0.00,,2013-04-18 03:12:00,
2013-04-17 23:22:00,66.0,62.0,30.24,SW,232,0.0,0.0,87,0.00,,,0.00,,2013-04-18 03:22:00,
2013-04-17 23:33:00,66.0,62.0,30.23,SW,232,0.0,0.0,87,0.00,,,0.00,,2013-04-18 03:33:00,
2013-04-17 23:43:00,65.0,61.0,30.23,SW,232,0.0,0.0,88,0.00,,,0.00,,2013-04-18 03:43:00,
2013-04-17 23:53:00,65.0,61.0,30.23,SW,232,0.0,0.0,88,0.00,,,0.00,,2013-04-18 03:53:00,